Regional Weather Roundup
Issued by NWS

Current Version | Previous Version | Text Only | Print | Product List | Glossary On
Versions: 1 2 3 4 5 6 7 8 9 10 11 12 13 14 15 16 17 18 19 20 21 22 23 24 25 26 27 28 29 30 31 32 33 34 35 36 37 38 39 40 41 42 43 44 45 46 47 48 49 50
000
ASUS43 KTOP 212008
RWRKS

WEATHER ROUNDUP FOR KANSAS
NATIONAL WEATHER SERVICE GOODLAND KS
200 PM CST THU NOV 21 2019

NOTE:  "FAIR" INDICATES FEW OR NO CLOUDS BELOW 12,000 FEET WITH NO
SIGNIFICANT WEATHER AND/OR OBSTRUCTIONS TO VISIBILITY.

KSZ001>006-013>018-027>032-041>047-212100-
NORTHWEST KANSAS

CITY           SKY/WX    TMP DP  RH WIND       PRES   REMARKS
GOODLAND       CLOUDY    34  25  69 N15G21    30.10F WCI  24
HAYS           CLOUDY    38  29  70 N23       30.13F WCI  27
HILL CITY      CLOUDY    39  28  64 N17       30.16F WCI  30
RUSSELL        CLOUDY    39  29  67 N18       30.13R WCI  30
$$

KSZ061>065-074>080-084>089-212100-
SOUTHWEST KANSAS

CITY           SKY/WX    TMP DP  RH WIND       PRES   REMARKS
DODGE CITY     PTSUNNY   42  30  62 NE21G30   30.04F
ELKHART        PTSUNNY   43  32  65 N14       30.05S
GARDEN CITY    CLOUDY    40  28  62 N17G28    30.06F WCI  31
GREAT BEND     CLOUDY    41  30  65 N21       30.12F
LIBERAL        CLOUDY    43  28  55 NE16      30.06F
PRATT          PTSUNNY   45  29  53 N21G29    30.06F
$$

KSZ066>073-081>083-090>101-212100-
SOUTHEAST KANSAS

CITY           SKY/WX    TMP DP  RH WIND       PRES   REMARKS
CHANUTE        CLOUDY    48  38  68 N15G24    30.03F
COFFEYVILLE    CLOUDY    50  40  68 N14       30.01S
HUTCHINSON     CLOUDY    43  32  65 N15G24    30.09S
MEDICINE LODGE   N/A     47  32  56 N16       30.06R
NEWTON         CLOUDY    41  33  73 N21       30.07S
PARSONS        CLOUDY    48  40  73 N12       30.04R
WICHITA INTL   CLOUDY    45  33  63 N21G30    30.05F
WICHITA JABRA  CLOUDY    44  34  67 N20G28    30.05F
WICHITA MCCONL CLOUDY    44  33  65 N17G26    30.05
WINFIELD       CLOUDY    47  36  65 N16G25    30.06R
$$

KSZ007>012-019>026-033>040-048>060-102>105-212100-
NORTHEAST KANSAS

CITY           SKY/WX    TMP DP  RH WIND       PRES   REMARKS
CONCORDIA      CLOUDY    38  30  73 N16G30    30.13S WCI  29
EMPORIA        CLOUDY   N/A N/A N/A N12       30.07R
LAWRENCE       CLOUDY    43  34  70 N18G30    30.07R
MANHATTAN      CLOUDY    41  33  73 N8G23     30.12R
MARYSVILLE     CLOUDY    36  32  87 N21G26    30.12R WCI  24
OLATHE IND     CLOUDY    42  35  76 NW17      30.05R
OLATHE EXE     CLOUDY    42  38  85 N12G23    30.04R
SALINA         CLOUDY    41  31  67 N20G26    30.12S
TOPEKA BILLARD CLOUDY    43  34  70 NW17G25   30.08R
TOPEKA FORBES  CLOUDY    43  34  70 NW18      30.07R
$$



USA.gov is the U.S. government's official web portal to all federal, state and local government web resources and services.